Date,TemperatureHighF,TemperatureAvgF,TemperatureLowF,DewpointHighF,DewpointAvgF,DewpointLowF,HumidityHigh,HumidityAvg,HumidityLow,PressureMaxIn,PressureMinIn,WindSpeedMaxMPH,WindSpeedAvgMPH,GustSpeedMaxMPH,PrecipitationSumIn
2012-1-1,49.6,40.9,32.5,44.2,29.1,10.0,98,66,35,30.06,29.56,24,6,24,0.09
2012-1-2,32.5,28.8,24.1,29.3,12.9,-0.4,89,53,32,29.97,29.76,18,5,18,0.00
2012-1-3,24.4,15.4,5.9,6.7,-7.3,-20.9,58,36,26,30.30,29.94,15,3,15,0.00
2012-1-4,34.0,22.0,6.1,8.2,-4.0,-20.7,44,31,25,30.21,29.88,20,5,20,0.00
2012-1-5,38.7,33.6,28.9,13.6,10.9,8.2,44,39,30,30.00,29.76,15,4,15,0.00
2012-1-6,53.4,44.7,37.2,21.8,15.8,8.8,36,31,28,29.79,29.71,17,5,17,0.04
2012-1-7,45.5,41.6,35.8,23.7,18.2,14.3,57,39,30,30.12,29.68,13,3,13,0.00
2012-1-8,35.8,30.7,22.5,15.3,7.5,2.2,60,38,30,30.36,30.12,12,2,12,0.00
2012-1-9,42.6,34.0,25.0,11.0,8.7,6.9,50,35,26,30.30,29.91,12,3,12,0.00
2012-1-10,44.8,35.8,27.5,30.4,18.5,9.3,98,52,29,30.06,29.91,17,2,17,0.00
2012-1-11,47.3,39.0,31.3,33.0,20.6,13.4,98,51,27,29.94,29.53,14,4,14,0.16
2012-1-12,45.9,42.0,32.9,43.7,36.1,25.5,93,80,64,29.53,29.38,17,4,17,0.13
2012-1-13,32.7,21.2,16.3,26.9,7.9,0.6,90,57,43,29.88,29.38,21,6,21,0.00
2012-1-14,25.2,21.3,8.1,14.3,4.2,-12.3,72,48,33,30.21,29.88,10,2,11,0.00
2012-1-15,30.7,14.5,3.2,-2.7,-9.4,-16.7,40,34,23,30.50,30.18,8,2,8,0.00
2012-1-16,41.7,31.4,17.1,36.7,10.3,-5.8,87,45,21,30.39,29.88,22,7,22,0.29
2012-1-17,56.3,44.2,31.5,49.9,33.4,11.2,98,68,42,29.91,29.47,22,7,22,0.83
2012-1-18,31.1,23.9,16.5,11.3,0.1,-7.1,45,35,27,30.24,29.88,18,3,18,0.00
2012-1-19,27.7,22.3,15.6,21.3,1.4,-11.2,79,41,26,30.12,29.79,23,6,23,0.00
2012-1-20,27.0,18.4,13.8,6.2,-7.2,-12.1,57,32,23,30.33,30.06,11,2,11,0.00
2012-1-21,26.1,22.8,18.7,9.9,6.3,2.7,63,49,38,30.33,29.97,10,1,10,0.00
2012-1-22,39.4,28.3,10.9,14.6,4.8,-4.0,57,37,23,30.33,30.00,17,5,17,0.00
2012-1-23,53.4,41.9,34.5,36.8,26.1,14.6,83,54,40,30.00,29.62,21,7,21,0.54
2012-1-24,35.6,33.3,32.0,21.1,14.3,11.1,62,45,41,30.33,29.88,15,4,15,0.00
2012-1-25,33.1,31.5,30.6,15.1,12.2,10.2,51,44,40,30.39,30.18,8,1,8,0.00
2012-1-26,48.7,36.9,30.6,48.2,27.8,14.6,98,72,50,30.18,29.53,8,1,8,0.33
2012-1-27,49.5,37.9,30.6,48.7,36.9,25.5,98,96,78,30.03,29.38,11,2,11,0.75
2012-1-28,34.9,32.7,30.2,34.4,19.3,-0.6,98,64,25,30.12,29.85,22,5,22,0.08
2012-1-29,40.3,31.6,26.6,29.8,9.1,0.4,95,43,24,30.15,29.91,17,5,17,0.00
2012-1-30,44.1,31.4,23.5,12.9,4.5,-0.5,44,32,25,30.33,30.00,26,5,26,0.00
2012-1-31,59.2,50.9,41.7,29.3,15.3,11.8,38,24,19,30.06,29.91,18,6,18,0.00
2012-2-1,54.1,44.4,36.9,48.2,30.1,18.5,98,59,38,30.15,29.88,18,3,18,0.13
2012-2-2,36.9,34.6,32.9,19.7,16.5,12.0,55,47,41,30.41,30.09,8,2,8,0.00
2012-2-3,45.1,35.7,31.8,20.0,13.7,9.6,55,41,25,30.53,30.36,8,1,8,0.00
2012-2-4,43.0,33.2,24.3,24.7,17.2,10.1,90,54,29,30.36,30.15,9,1,9,0.00
2012-2-5,41.4,29.4,21.6,34.7,20.1,11.6,98,72,32,30.27,30.12,7,1,7,0.00
2012-2-6,47.3,36.9,30.0,18.4,15.1,8.6,53,42,22,30.18,30.06,13,3,13,0.00
2012-2-7,36.3,33.8,29.5,24.0,19.9,8.7,70,57,41,30.30,30.09,7,2,8,0.00
2012-2-8,30.0,27.0,22.8,10.3,5.8,-5.1,52,40,23,30.33,30.18,6,2,6,0.00
2012-2-9,39.2,28.6,21.2,11.1,7.1,3.0,53,41,24,30.27,30.12,13,3,13,0.00
2012-2-10,32.4,29.3,26.4,13.5,5.9,-2.5,53,37,23,30.12,29.88,14,4,14,0.00
2012-2-11,28.6,21.9,15.8,20.2,7.6,-7.4,72,54,34,30.12,29.76,18,4,18,0.00
2012-2-12,28.9,23.3,19.4,6.7,1.1,-4.8,51,38,28,30.12,30.00,16,4,16,0.00
2012-2-13,37.6,27.9,16.7,7.0,2.5,-5.6,57,35,22,30.15,30.03,12,3,12,0.04
2012-2-14,38.7,33.2,28.2,29.6,13.8,-3.7,85,47,23,30.03,29.91,12,3,12,0.00
2012-2-15,42.4,35.4,32.7,30.8,16.6,7.7,90,49,26,30.30,30.03,13,3,13,0.00
2012-2-16,44.1,40.0,36.3,43.5,32.0,15.3,98,76,40,30.18,29.94,14,4,14,0.12
2012-2-17,40.3,34.1,26.2,25.9,14.9,6.3,75,46,31,30.15,30.06,14,3,14,0.00
2012-2-18,40.6,33.7,28.8,23.3,13.8,5.8,65,44,32,30.21,29.94,18,4,18,0.00
2012-2-19,32.2,28.8,27.0,10.3,5.3,1.8,46,36,30,30.21,30.09,8,1,8,0.00
2012-2-20,36.7,27.5,18.9,18.0,7.2,3.3,75,43,27,30.39,30.15,8,1,8,0.00
2012-2-21,42.8,37.0,27.1,33.5,15.0,0.4,82,44,20,30.21,29.74,19,6,19,0.13
2012-2-22,45.5,37.8,32.7,31.7,24.2,18.0,96,59,39,29.76,29.50,17,3,17,0.04
2012-2-23,40.3,34.5,30.6,39.4,27.9,16.5,98,80,40,29.74,29.47,8,0,8,0.16
2012-2-24,48.2,37.8,31.1,45.7,28.6,12.3,98,73,29,29.68,29.35,27,4,27,0.38
2012-2-25,34.9,31.1,28.4,17.1,8.0,-2.2,62,38,25,30.27,29.68,18,5,18,0.00
2012-2-26,42.3,32.7,27.0,7.0,3.7,-1.1,39,29,21,30.44,30.21,13,3,13,0.00
2012-2-27,53.1,39.8,32.4,12.3,6.7,0.7,41,26,18,30.41,30.12,19,6,19,0.00
2012-2-28,40.6,34.1,27.1,13.1,6.4,-0.9,47,32,21,30.50,30.21,12,2,12,0.00
2012-2-29,53.8,41.2,34.2,48.2,29.5,-0.4,98,69,22,30.21,29.56,13,2,13,0.37
2012-3-1,47.3,38.0,34.9,46.8,25.0,16.9,98,61,43,29.97,29.56,15,4,16,0.04
2012-3-2,54.3,43.0,32.9,41.7,24.3,16.1,74,49,29,29.94,29.35,22,5,22,0.29
2012-3-3,54.7,37.6,30.7,37.1,10.9,4.2,52,33,26,29.76,29.35,24,6,24,0.00
2012-3-4,32.0,28.2,21.7,17.4,8.0,2.0,59,42,31,29.91,29.71,12,3,12,0.00
2012-3-5,30.9,23.4,18.3,6.7,0.4,-5.7,48,37,25,30.41,29.88,10,2,10,0.00
2012-3-6,50.4,36.1,22.6,10.0,4.6,-0.4,42,27,19,30.50,30.24,22,6,22,0.00
2012-3-7,66.7,57.4,49.1,21.3,13.7,8.6,19,18,15,30.30,30.12,24,8,24,0.00
2012-3-8,60.4,50.2,32.4,54.1,33.0,16.8,98,63,19,30.15,29.88,25,6,25,0.54
2012-3-9,37.2,31.7,25.9,31.9,11.2,-5.5,98,45,24,30.47,30.12,18,4,18,0.00
2012-3-10,45.0,34.1,22.8,6.3,0.5,-6.4,33,24,20,30.59,30.30,18,5,18,0.00
2012-3-11,64.0,49.0,39.2,19.3,9.5,2.6,30,20,16,30.41,30.30,18,4,18,0.00
2012-3-12,63.3,53.1,44.2,54.3,30.7,8.1,98,53,16,30.30,29.97,19,4,19,0.21
2012-3-13,65.5,57.9,45.5,55.4,37.9,14.9,98,53,24,30.15,29.94,22,5,22,0.04
2012-3-14,73.8,53.9,32.5,30.1,20.1,11.3,83,32,15,30.24,30.12,9,1,9,0.00
2012-3-15,74.5,63.8,57.0,57.8,31.7,18.5,90,32,16,30.21,30.09,14,4,14,0.16
2012-3-16,65.3,58.4,49.3,59.7,55.6,48.6,98,91,64,30.24,30.06,13,2,13,0.09
2012-3-17,75.2,60.8,48.2,64.2,50.3,43.4,98,74,35,30.27,30.21,8,1,8,0.00
2012-3-18,77.5,63.9,55.9,63.3,47.6,39.0,98,60,27,30.24,30.12,12,2,12,0.04
2012-3-19,71.6,60.3,55.2,67.2,56.7,49.4,98,89,50,30.21,30.12,9,1,9,0.74
2012-3-20,81.0,64.9,55.2,57.9,47.6,30.9,98,61,17,30.27,30.15,9,2,9,0.00
2012-3-21,81.9,67.9,59.2,52.2,39.5,26.3,76,39,17,30.30,30.21,10,3,10,0.00
2012-3-22,79.9,66.4,55.8,54.2,36.8,23.1,88,38,15,30.24,30.15,10,2,10,0.00
2012-3-23,75.0,59.9,49.1,60.2,44.5,35.8,98,61,33,30.15,29.94,12,1,12,0.00
2012-3-24,60.1,52.4,43.3,59.5,51.5,41.5,98,97,61,29.97,29.85,5,0,5,0.42
2012-3-25,56.8,46.9,42.4,49.6,44.4,40.9,98,92,58,30.00,29.88,8,1,8,0.00
2012-3-26,42.6,37.6,30.9,41.9,16.3,-1.0,98,46,21,30.36,30.00,15,4,15,0.00
2012-3-27,51.3,37.6,21.2,12.6,5.3,-2.6,58,27,19,30.39,29.94,22,3,22,0.00
2012-3-28,69.1,57.6,43.3,28.1,19.0,9.7,48,23,17,29.94,29.74,21,6,21,0.00
2012-3-29,43.2,39.4,37.4,25.6,20.1,15.5,59,46,39,30.12,29.91,13,3,13,0.00
2012-3-30,50.4,39.0,28.0,40.8,20.3,10.3,98,51,21,30.12,29.76,15,2,15,0.33
2012-3-31,39.7,36.1,28.6,37.1,34.0,28.1,98,92,75,30.00,29.79,10,2,10,0.00
2012-4-1,52.5,37.0,27.9,40.3,32.4,27.4,98,86,48,29.97,29.74,12,1,12,0.00
2012-4-2,53.4,43.2,30.4,35.1,22.0,8.2,89,47,18,30.12,29.94,10,2,10,0.00
2012-4-3,66.0,43.4,26.4,34.2,17.8,6.2,98,47,15,30.09,29.85,10,1,10,0.00
2012-4-4,54.0,43.8,31.6,40.7,26.4,12.5,98,54,24,29.94,29.85,12,2,12,0.00
2012-4-5,47.5,36.2,26.8,38.9,23.4,14.0,98,65,29,30.09,29.91,13,2,13,0.00
2012-4-6,49.5,38.9,25.7,36.8,19.2,5.7,98,53,19,30.24,30.09,10,2,11,0.00
2012-4-7,56.7,41.8,25.2,41.7,16.5,1.5,98,45,17,30.33,30.15,9,2,9,0.00
2012-4-8,58.1,44.1,30.7,44.3,20.6,7.4,90,42,19,30.15,29.94,13,2,13,0.00
2012-4-9,55.6,46.4,37.9,33.5,18.3,9.7,75,35,18,30.00,29.82,10,2,11,0.00
2012-4-10,45.7,39.8,34.3,36.3,21.9,14.3,98,50,28,29.97,29.76,13,2,13,0.04
2012-4-11,47.8,38.9,33.8,38.5,33.0,25.3,98,81,47,30.18,29.91,10,2,10,0.17
2012-4-12,53.2,42.6,30.2,41.4,25.1,9.3,98,56,21,30.27,30.15,9,1,9,0.00
2012-4-13,57.9,43.0,27.7,41.4,18.6,6.4,98,49,17,30.33,30.21,11,1,11,0.00
2012-4-14,60.8,51.3,40.3,52.8,25.9,8.1,95,45,16,30.21,30.00,17,4,17,0.04
2012-4-15,79.3,64.7,54.9,62.5,48.6,27.5,98,66,18,30.03,29.94,17,4,17,0.13
2012-4-16,82.2,68.0,50.2,39.7,31.4,20.4,38,27,14,30.18,29.85,23,6,23,0.00
2012-4-17,53.2,46.1,33.8,37.1,23.2,14.2,98,43,27,30.41,30.15,11,2,11,0.00
2012-4-18,54.5,42.6,29.5,43.7,27.2,16.0,98,62,23,30.36,30.06,10,1,10,0.00
2012-4-19,72.3,58.8,43.5,28.4,22.6,18.8,40,26,16,30.12,29.97,10,3,12,0.00
2012-4-20,79.0,66.0,50.4,49.0,25.8,20.3,95,24,15,29.97,29.76,15,4,15,0.00
2012-4-21,50.2,41.8,39.9,49.0,41.1,37.8,98,97,90,30.00,29.82,8,1,8,0.33
2012-4-22,41.9,40.6,37.8,38.1,33.1,27.8,98,75,59,29.97,29.82,14,4,14,0.04
2012-4-23,42.1,37.8,33.8,37.8,33.5,23.3,98,86,48,29.82,29.50,19,4,19,0.66
2012-4-24,50.5,41.9,32.7,35.0,24.5,12.1,93,52,24,29.71,29.44,19,4,19,0.00
2012-4-25,58.8,45.7,28.8,41.7,19.8,6.7,98,48,17,29.94,29.71,9,1,9,0.00
2012-4-26,63.9,50.4,41.9,45.5,22.5,6.4,94,39,18,29.97,29.68,13,3,13,0.00
2012-4-27,49.3,40.8,29.1,28.9,13.3,-0.2,60,34,19,30.27,29.97,14,3,14,0.00
2012-4-28,47.5,37.6,26.8,28.5,13.6,2.8,97,44,19,30.30,30.21,9,1,9,0.00
2012-4-29,58.3,41.3,24.4,34.8,16.6,4.5,98,47,17,30.36,30.21,9,1,9,0.00
2012-4-30,70.7,49.8,33.3,54.1,24.1,4.4,98,42,17,30.27,29.94,11,2,11,0.58
2012-5-1,59.4,53.2,48.6,58.8,52.3,48.0,98,97,85,30.15,29.88,7,0,7,0.34
2012-5-2,83.8,66.7,51.4,61.2,56.2,50.9,98,73,42,30.09,30.00,10,2,10,0.00
2012-5-3,86.5,74.0,59.2,70.8,54.2,41.0,98,56,23,30.12,30.03,10,1,10,0.00
2012-5-4,78.3,67.3,60.1,69.3,58.7,44.3,98,77,45,30.09,30.00,8,1,8,0.28
2012-5-5,63.1,56.6,46.4,61.2,44.6,35.2,95,66,45,30.15,30.00,14,3,14,0.00
2012-5-6,67.8,55.2,41.0,53.8,29.3,12.4,98,50,15,30.15,30.03,12,2,12,0.00
2012-5-7,73.0,61.8,53.4,65.8,52.0,28.5,98,73,37,30.09,29.82,8,1,8,0.17
2012-5-8,67.8,59.4,53.1,62.9,53.8,39.2,98,85,39,29.91,29.82,9,1,9,0.58
2012-5-9,68.5,56.7,47.1,56.1,44.5,29.1,98,68,25,29.88,29.82,13,2,13,0.04
2012-5-10,59.7,51.1,44.6,47.2,39.7,30.4,98,68,39,30.03,29.79,12,2,12,0.00
2012-5-11,66.6,51.4,37.6,45.9,32.1,12.8,98,56,16,30.24,30.00,8,1,8,0.00
2012-5-12,76.1,62.6,51.3,28.9,23.8,17.3,37,24,15,30.30,30.18,13,2,13,0.00
2012-5-13,72.1,60.1,49.1,53.1,34.7,20.1,97,46,17,30.27,30.15,8,1,8,0.00
2012-5-14,70.9,60.2,48.6,60.4,43.4,24.9,98,64,19,30.15,30.09,6,1,7,0.00
2012-5-15,74.8,62.4,49.8,65.6,42.6,20.3,98,59,16,30.09,29.94,10,1,10,0.00
2012-5-16,69.8,56.9,39.4,54.5,35.0,25.2,96,47,23,30.18,29.91,10,2,10,0.00
2012-5-17,61.7,48.2,33.8,51.3,28.2,11.9,98,59,17,30.30,30.15,8,1,8,0.00
2012-5-18,73.6,56.8,37.6,45.5,29.9,14.4,98,47,15,30.24,30.15,9,1,9,0.00
2012-5-19,83.7,67.0,48.4,48.4,31.9,20.4,94,34,14,30.27,30.15,8,1,8,0.00
2012-5-20,87.6,71.9,57.2,35.3,29.0,23.1,41,22,13,30.27,30.15,9,1,9,0.00
2012-5-21,83.7,72.6,63.1,62.0,32.7,25.8,93,25,14,30.15,30.00,10,3,10,0.00
2012-5-22,68.5,61.0,53.2,62.9,56.3,51.3,98,85,61,30.06,29.97,10,1,10,0.00
2012-5-23,72.9,61.0,50.5,61.6,51.4,44.0,98,75,40,30.06,29.97,8,1,8,0.00
2012-5-24,86.5,73.8,57.9,63.7,50.0,32.6,98,53,16,30.09,30.00,12,3,12,0.00
2012-5-25,89.8,76.4,67.8,68.3,47.0,35.2,98,40,15,30.15,30.00,14,4,14,0.33
2012-5-26,78.8,68.9,60.1,70.3,52.1,29.3,98,64,18,30.30,30.15,6,1,6,0.00
2012-5-27,84.9,66.7,56.7,68.6,59.5,49.8,98,81,39,30.27,30.03,11,1,11,0.54
2012-5-28,90.3,80.1,66.7,68.4,57.1,39.1,91,52,19,30.09,29.91,12,3,12,0.00
2012-5-29,82.8,74.6,64.8,69.5,57.2,49.3,91,56,40,29.91,29.82,12,3,12,0.00
2012-5-30,74.5,65.7,52.2,62.4,43.1,22.3,98,54,16,29.94,29.85,9,1,9,0.00
2012-5-31,67.6,59.8,50.5,55.8,39.8,25.3,98,54,23,30.06,29.88,8,2,8,0.00
2012-6-1,71.4,59.7,53.8,64.2,55.2,33.5,98,87,38,29.94,28.94,16,3,16,0.71
2012-6-2,71.4,59.2,49.5,53.8,39.4,20.6,98,56,17,29.85,29.71,15,4,15,0.12
2012-6-3,72.7,59.8,54.0,61.1,53.2,34.7,98,82,31,29.82,29.74,15,2,15,0.21
2012-6-4,65.8,56.6,47.3,56.1,50.3,43.9,98,81,47,29.94,29.76,9,1,9,0.00
2012-6-5,68.0,57.8,48.2,51.2,46.2,36.2,98,69,37,30.06,29.91,12,2,12,0.00
2012-6-6,72.1,61.6,44.4,60.2,38.2,22.3,98,51,16,30.12,30.03,9,1,9,0.00
2012-6-7,74.7,62.1,49.6,62.2,47.8,35.4,98,66,27,30.12,30.03,9,1,9,0.00
2012-6-8,79.3,65.8,50.2,60.3,40.3,20.3,98,51,15,30.12,30.00,10,2,10,0.00
2012-6-9,84.9,72.4,64.8,37.1,26.9,20.1,32,19,13,30.09,29.97,10,2,10,0.00
2012-6-10,86.9,75.9,65.8,40.8,29.3,24.4,37,19,13,30.18,30.03,8,1,8,0.00
2012-6-11,85.6,73.0,66.2,69.9,47.9,28.4,98,50,13,30.12,30.00,13,2,13,0.12
2012-6-12,80.2,71.2,61.5,72.1,64.5,49.4,98,81,48,30.12,29.91,14,3,14,0.08
2012-6-13,69.1,58.1,48.7,50.7,44.2,35.5,98,62,32,30.27,30.12,10,2,10,0.00
2012-6-14,75.6,61.6,45.9,60.1,43.0,25.9,98,59,19,30.33,30.21,10,2,10,0.00
2012-6-15,87.1,70.6,54.5,55.7,46.1,28.1,96,49,13,30.30,30.21,10,2,10,0.00
2012-6-16,84.6,74.4,63.5,53.6,36.9,27.8,65,28,13,30.33,30.12,10,3,10,0.00
2012-6-17,82.0,72.4,65.5,68.1,40.9,29.6,97,36,20,30.12,29.94,15,4,15,0.00
2012-6-18,85.1,75.2,66.4,68.7,59.6,46.7,98,64,28,30.06,29.94,13,3,13,0.04
2012-6-19,90.1,79.7,71.1,56.5,47.3,34.5,59,35,15,30.15,30.03,13,4,13,0.00
2012-6-20,90.0,81.0,72.5,47.8,41.2,29.4,41,26,13,30.21,30.06,10,2,10,0.00
2012-6-21,90.9,81.1,69.3,65.6,40.6,29.9,88,27,12,30.09,29.91,11,2,11,0.00
2012-6-22,78.8,71.6,62.8,70.2,63.3,53.5,98,78,47,30.06,29.94,8,1,8,0.00
2012-6-23,78.6,67.7,57.7,67.4,44.0,24.1,98,56,15,30.15,30.03,8,1,8,0.00
2012-6-24,82.6,70.2,56.3,58.0,44.0,26.1,98,51,14,30.12,29.91,8,1,8,0.00
2012-6-25,72.1,65.7,61.0,65.0,41.7,18.5,98,52,17,30.06,29.91,10,2,10,0.17
2012-6-26,75.4,67.1,59.7,46.5,35.8,24.1,59,33,18,30.09,29.97,11,3,11,0.00
2012-6-27,80.1,68.7,55.0,66.4,39.4,22.2,98,45,15,30.09,29.94,10,2,10,0.00
2012-6-28,89.1,77.4,66.0,44.3,30.9,26.4,35,19,13,29.97,29.79,9,2,9,0.00
2012-6-29,86.5,77.7,69.3,73.0,55.2,26.1,98,53,15,29.94,29.76,9,1,9,0.00
2012-6-30,87.3,75.1,66.0,50.7,41.3,27.3,53,33,13,29.94,29.88,10,2,10,0.00
2012-7-1,85.8,75.5,63.5,69.3,42.4,24.6,98,40,13,30.09,29.88,10,1,10,0.00
2012-7-2,87.1,73.2,59.7,66.5,50.9,27.0,98,57,13,30.15,30.03,7,1,7,0.00
2012-7-3,83.5,72.4,63.1,73.0,58.5,31.8,98,67,16,30.09,29.91,13,2,13,1.25
2012-7-4,91.0,77.7,65.7,73.8,68.0,62.7,98,76,42,30.00,29.88,10,2,10,0.00
2012-7-5,85.5,76.9,69.1,73.3,68.5,60.2,98,78,47,30.09,29.94,10,1,10,0.00
2012-7-6,91.6,78.7,66.9,72.8,65.4,46.8,98,69,23,30.09,30.00,9,1,9,0.00
2012-7-7,91.4,80.3,69.4,75.8,68.8,58.1,98,71,44,30.03,29.97,10,2,10,0.00
2012-7-8,83.8,76.0,68.9,71.2,61.2,46.6,98,64,39,30.09,30.00,9,1,9,0.00
2012-7-9,80.6,71.2,60.4,61.8,44.9,24.4,94,47,15,30.15,30.06,8,1,8,0.00
2012-7-10,83.1,69.0,57.9,64.7,47.6,25.0,98,59,14,30.21,30.06,8,1,8,0.00
2012-7-11,85.8,70.8,56.5,68.2,40.3,22.5,98,48,13,30.24,30.15,12,1,12,0.00
2012-7-12,87.6,74.0,58.8,57.2,41.8,27.8,81,38,13,30.24,30.15,8,1,8,0.00
2012-7-13,91.6,78.1,68.9,48.3,34.8,24.1,45,24,12,30.27,30.18,12,2,12,0.00
2012-7-14,82.4,72.7,59.5,67.8,55.6,29.6,97,58,23,30.24,30.15,8,1,8,0.00
2012-7-15,85.5,74.9,69.3,73.7,69.6,63.7,98,85,54,30.18,30.06,10,1,10,0.33
2012-7-16,84.6,77.0,67.6,75.9,64.8,57.2,98,70,42,30.12,29.97,8,1,8,0.25
2012-7-17,93.6,83.5,70.9,59.8,46.2,30.7,68,30,12,29.97,29.88,13,3,13,0.25
2012-7-18,84.9,77.6,67.6,74.8,64.9,47.4,98,68,31,30.06,29.88,8,1,8,0.25
2012-7-19,79.7,69.5,64.9,72.1,67.3,62.5,98,93,56,30.09,29.97,9,1,9,0.54
2012-7-20,72.0,65.4,61.9,65.2,59.8,51.9,98,84,51,30.12,29.97,12,2,12,0.25
2012-7-21,80.1,69.0,57.0,69.2,58.0,51.3,98,72,41,30.18,30.09,8,1,8,0.25
2012-7-22,85.6,75.4,65.8,64.6,58.6,42.6,91,60,25,30.21,30.09,11,2,11,0.25
2012-7-23,93.6,82.6,71.8,58.6,44.8,30.3,60,31,11,30.12,29.88,11,3,11,0.25
2012-7-24,82.6,75.7,66.0,72.1,60.1,45.7,97,61,32,30.03,29.88,11,2,11,0.25
2012-7-25,85.3,72.1,54.9,67.7,39.1,25.0,98,44,13,30.06,29.76,12,2,14,0.25
2012-7-26,84.6,74.8,69.3,74.9,65.1,25.6,98,78,15,29.82,29.71,15,1,15,0.29
2012-7-27,82.8,74.1,68.2,74.8,64.8,51.2,98,76,36,30.00,29.79,10,1,10,0.25
2012-7-28,79.9,71.5,66.4,71.7,65.4,57.7,98,83,50,30.15,29.94,11,1,11,0.58
2012-7-29,83.5,70.9,59.0,74.4,57.1,36.0,98,68,19,30.18,30.09,9,1,9,0.97
2012-7-30,88.2,71.8,57.6,62.2,45.3,27.0,98,54,13,30.12,30.03,8,1,8,0.25
2012-7-31,89.1,75.7,67.5,65.1,54.3,32.9,89,54,15,30.03,29.94,10,2,10,0.25
2012-8-1,78.8,70.3,61.7,73.5,60.4,42.2,98,75,29,30.00,29.17,6,1,6,0.00
2012-8-2,90.1,73.1,61.9,71.1,54.7,29.5,98,63,12,29.26,29.14,8,1,8,0.00
2012-8-3,93.7,79.5,67.3,61.4,44.0,29.2,78,36,11,29.29,29.17,8,2,8,0.00
2012-8-4,94.1,83.3,73.0,68.8,50.8,35.3,86,40,14,30.12,29.26,14,4,14,0.00
2012-8-5,84.2,77.5,70.2,73.9,60.8,47.1,96,60,30,30.15,29.97,18,4,18,0.00
2012-8-6,77.9,68.7,55.6,59.9,41.5,23.8,97,45,15,30.24,30.09,8,1,8,0.00
2012-8-7,83.5,69.7,55.9,55.9,44.0,27.0,97,49,14,30.12,30.03,10,2,10,0.00
2012-8-8,87.3,74.3,62.2,65.8,45.6,31.1,93,41,16,30.06,30.00,8,1,8,0.00
2012-8-9,79.7,68.4,59.4,67.8,60.0,40.0,98,78,25,30.03,29.88,8,1,8,0.08
2012-8-10,72.0,67.5,63.9,70.2,64.6,60.7,98,91,71,29.88,29.76,15,2,15,0.58
2012-8-11,73.0,64.6,59.4,63.8,58.8,50.5,98,83,48,29.97,29.79,15,4,15,0.05
2012-8-12,76.3,67.1,62.4,68.0,60.1,51.1,98,81,43,30.09,29.94,10,2,10,0.12
2012-8-13,82.4,69.9,61.2,64.2,50.0,27.2,98,58,14,30.09,30.03,10,1,10,0.04
2012-8-14,74.1,67.7,63.0,64.9,62.7,54.7,98,85,52,30.03,29.94,8,1,8,0.04
2012-8-15,81.3,69.1,60.8,71.7,55.6,26.9,98,71,14,30.09,29.94,9,1,9,0.00
2012-8-16,87.1,72.0,59.7,62.8,50.5,28.1,98,57,13,30.03,29.88,10,2,10,0.00
2012-8-17,77.0,69.9,62.2,66.9,54.7,46.7,98,61,39,30.00,29.85,12,2,12,0.08
2012-8-18,73.9,63.5,50.5,57.3,38.1,19.1,97,48,15,30.09,29.97,8,1,8,0.00
2012-8-19,78.4,64.0,50.0,42.2,32.0,22.0,66,35,15,30.03,29.97,8,1,8,0.00
2012-8-20,77.2,65.6,55.8,61.8,46.2,24.1,98,56,15,30.06,29.94,9,1,9,0.00
2012-8-21,78.6,64.9,52.0,61.6,42.0,24.2,98,57,15,30.15,30.03,10,1,10,0.00
2012-8-22,79.3,66.3,55.8,58.0,46.7,26.7,98,59,18,30.24,30.12,8,1,8,0.00
2012-8-23,83.8,69.7,58.1,53.3,38.5,23.1,79,40,14,30.24,30.15,8,1,8,0.00
2012-8-24,88.7,73.0,59.2,49.9,36.2,24.4,70,31,13,30.24,30.15,9,2,9,0.00
2012-8-25,92.7,77.5,66.4,47.3,35.1,24.4,49,24,12,30.27,30.18,11,3,11,0.00
2012-8-26,88.0,75.4,65.7,42.2,33.9,26.9,39,23,13,30.30,30.15,13,3,13,0.00
2012-8-27,74.8,69.7,66.9,70.1,64.3,41.9,98,85,34,30.15,30.03,12,2,12,0.88
2012-8-28,78.3,70.3,64.2,72.1,61.7,52.8,98,77,45,30.12,30.03,13,1,13,0.00
2012-8-29,74.7,64.1,52.9,66.5,45.4,21.7,98,61,16,30.15,30.09,10,1,10,0.00
2012-8-30,82.0,65.2,50.7,60.7,44.7,25.3,98,61,14,30.18,30.09,9,1,9,0.00
2012-8-31,91.4,77.5,65.1,56.0,40.6,27.0,49,31,12,30.12,30.06,15,3,15,0.00
2012-9-1,83.7,73.5,64.2,72.3,58.5,27.3,98,65,17,30.18,30.09,8,1,8,0.00
2012-9-2,83.7,72.6,64.0,64.0,49.4,25.3,93,52,14,30.12,30.06,10,1,10,0.00
2012-9-3,90.7,77.5,65.7,72.0,65.2,49.0,96,70,26,30.06,29.97,12,2,12,0.00
2012-9-4,84.4,73.5,68.2,73.2,69.4,64.6,98,88,52,30.03,29.88,11,2,11,0.08
2012-9-5,82.0,71.6,63.1,73.3,64.6,57.3,98,82,45,30.00,29.91,8,1,8,0.00
2012-9-6,82.6,73.3,64.0,70.4,64.6,55.6,98,76,48,30.00,29.91,8,1,8,0.00
2012-9-7,85.1,72.0,62.1,71.2,54.4,27.0,98,62,14,30.00,29.76,12,2,12,0.00
2012-9-8,73.8,65.5,60.3,66.7,55.7,42.6,98,74,34,29.85,29.56,13,2,13,0.99
2012-9-9,71.6,62.6,54.9,63.9,45.4,25.7,98,61,19,30.09,29.85,10,1,10,1.71
2012-9-10,70.9,58.4,45.7,57.0,34.8,18.8,98,52,17,30.24,30.09,9,1,9,0.00
2012-9-11,78.8,62.3,49.5,53.8,38.5,23.1,97,52,15,30.33,30.21,11,2,11,0.00
2012-9-12,83.7,67.6,55.4,50.1,34.9,24.4,57,34,14,30.33,30.24,10,2,10,0.00
2012-9-13,85.6,70.3,60.1,56.8,36.0,25.7,75,32,13,30.36,30.24,10,1,10,0.00
2012-9-14,78.8,63.8,49.8,60.3,49.2,37.8,98,64,29,30.27,30.18,11,2,11,0.37
2012-9-15,71.2,57.7,46.8,61.0,41.5,20.1,98,66,17,30.30,30.21,10,1,10,0.00
2012-9-16,75.0,59.4,46.8,54.8,41.1,23.1,98,64,16,30.21,30.09,10,1,10,0.00
2012-9-17,76.6,64.3,52.5,53.8,36.7,22.8,95,45,15,30.12,29.85,10,2,10,0.00
2012-9-18,70.2,61.7,53.8,68.4,55.1,35.6,98,82,34,29.91,29.62,13,3,13,0.20
2012-9-19,65.5,56.0,47.1,41.7,29.6,15.1,79,40,16,30.18,29.91,10,2,10,0.00
2012-9-20,73.2,60.4,47.3,34.9,25.6,19.1,57,30,16,30.12,29.94,17,4,17,0.00
2012-9-21,72.9,63.7,54.0,53.2,31.4,17.9,96,33,16,30.00,29.82,13,2,13,0.05
2012-9-22,59.9,54.2,46.9,59.2,52.4,39.4,98,94,53,30.03,29.74,9,1,9,1.28
2012-9-23,61.3,50.1,45.7,51.2,42.2,22.5,98,79,25,30.18,30.03,10,2,10,0.00
2012-9-24,62.1,51.5,43.5,50.2,32.8,15.3,98,58,19,30.24,30.03,12,3,12,0.21
2012-9-25,70.3,58.4,49.8,55.8,27.4,19.0,92,35,17,30.09,29.97,15,4,15,0.00
2012-9-26,64.8,61.1,57.7,64.0,60.5,55.8,98,98,92,30.15,29.97,14,2,14,0.12
2012-9-27,66.4,56.9,45.3,57.9,40.8,19.4,98,62,18,30.24,30.15,8,1,8,0.00
2012-9-28,64.8,56.0,45.3,54.1,46.4,36.3,98,73,39,30.18,30.09,9,1,9,0.00
2012-9-29,66.6,53.5,44.4,54.7,43.4,29.3,98,74,27,30.09,29.97,8,1,8,0.00
2012-9-30,66.6,53.5,44.1,56.6,41.6,22.5,98,73,20,29.97,29.91,10,1,10,0.00
2012-10-1,67.6,53.8,41.4,55.8,39.7,20.3,98,68,18,30.00,29.88,8,1,8,0.00
2012-10-2,66.9,60.5,53.4,66.3,58.8,47.7,98,94,77,29.94,29.85,6,0,8,0.54
2012-10-3,76.1,65.2,57.7,70.9,60.0,50.1,98,86,48,30.18,29.94,10,0,10,0.00
2012-10-4,75.7,63.3,56.7,57.7,47.1,24.4,98,63,15,30.18,30.09,13,1,13,0.00
2012-10-5,66.0,60.8,52.0,58.8,53.6,48.2,98,79,55,30.09,29.94,9,2,9,0.29
2012-10-6,53.6,49.7,46.8,51.4,37.8,25.4,98,68,39,30.09,29.88,12,2,12,0.75
2012-10-7,47.3,44.1,41.2,46.4,42.0,30.6,98,93,52,30.15,30.03,10,1,10,0.50
2012-10-8,57.6,44.9,36.7,41.7,32.9,13.7,98,69,20,30.24,30.12,10,2,10,0.00
2012-10-9,63.1,47.5,35.4,41.7,28.6,11.3,98,58,16,30.21,29.97,11,2,11,0.00
2012-10-10,52.2,46.7,42.4,47.0,37.0,20.3,98,71,38,30.12,29.85,18,4,18,0.49
2012-10-11,59.5,48.7,39.2,24.6,15.6,9.5,49,28,17,30.24,30.09,15,4,15,0.00
2012-10-12,53.1,44.7,33.1,42.0,27.4,9.5,97,58,19,30.41,30.09,9,2,10,0.09
2012-10-13,59.5,46.5,32.5,49.3,23.0,9.7,86,47,17,30.41,30.00,15,3,15,0.04
2012-10-14,75.7,66.8,56.8,55.5,45.1,24.2,84,51,16,30.00,29.68,20,6,20,0.04
2012-10-15,66.2,53.9,49.5,53.2,42.7,29.9,98,69,37,29.91,29.62,24,4,24,0.17
2012-10-16,56.8,48.1,38.8,42.8,36.1,25.1,98,66,33,30.00,29.88,10,1,10,0.00
2012-10-17,71.6,57.5,43.7,43.3,27.1,14.4,98,38,17,29.91,29.76,15,4,15,0.00
2012-10-18,69.4,55.4,47.7,50.8,33.3,13.1,98,53,17,29.85,29.68,18,4,18,0.08
2012-10-19,66.4,52.8,44.6,51.1,38.7,15.8,98,68,15,29.82,29.65,14,2,14,0.04
2012-10-20,55.0,48.2,45.3,47.8,44.2,35.9,98,87,50,29.88,29.68,13,3,13,0.50
2012-10-21,60.1,49.8,39.2,52.7,42.6,34.9,98,80,45,30.12,29.88,11,1,11,0.00
2012-10-22,75.0,53.7,39.2,42.3,34.7,21.3,98,62,16,30.15,30.09,8,1,8,0.00
2012-10-23,60.1,58.1,56.7,59.5,57.6,56.1,98,98,98,30.06,30.03,5,0,5,0.20
2012-10-24,75.0,62.7,56.1,67.8,54.5,44.5,98,79,37,30.09,30.06,8,0,8,0.00
2012-10-25,82.9,69.7,59.9,49.5,34.3,20.1,68,33,14,30.12,30.00,12,2,12,0.00
2012-10-26,70.3,58.3,48.4,48.7,42.3,21.0,98,61,17,30.18,30.00,14,3,14,0.00
2012-10-27,48.9,47.3,45.9,47.8,45.7,40.7,98,94,82,30.15,30.03,14,4,14,1.08
2012-10-28,46.0,43.4,42.3,42.8,41.5,38.0,98,93,77,30.09,29.91,15,4,15,0.71
2012-10-29,43.0,41.8,41.0,42.5,41.3,40.3,98,98,98,29.91,29.35,18,4,18,1.57
2012-10-30,55.6,47.3,40.8,51.8,43.4,34.8,98,88,50,29.41,29.12,23,3,23,0.59
2012-10-31,46.9,42.5,38.8,45.7,40.8,36.8,98,94,78,29.59,29.38,11,2,11,0.53
2012-11-1,42.8,41.8,39.7,42.3,40.5,29.6,98,96,61,29.74,29.59,12,3,12,0.46
2012-11-2,42.8,39.8,36.3,37.0,31.5,24.5,93,73,50,29.97,29.71,17,4,17,0.04
2012-11-3,45.0,39.9,37.8,31.4,26.1,21.5,75,58,46,30.12,29.97,11,3,11,0.00
2012-11-4,38.3,37.0,35.6,25.3,21.9,19.2,63,54,47,30.15,30.09,7,1,7,0.00
2012-11-5,37.6,35.7,34.2,24.3,21.1,17.5,63,55,46,30.18,30.09,8,1,8,0.00
2012-11-6,45.9,35.4,27.3,24.4,12.2,2.7,80,41,20,30.15,29.97,10,2,10,0.00
2012-11-7,44.1,34.8,24.8,11.1,4.5,1.0,48,28,20,30.09,29.94,9,2,9,0.00
2012-11-8,46.6,35.8,23.2,35.3,13.7,3.3,98,48,20,30.18,30.06,9,1,9,0.00
2012-11-9,47.7,40.1,32.9,40.1,28.0,11.2,98,67,27,30.21,30.12,11,1,11,0.00
2012-11-10,62.6,52.9,44.4,38.0,25.9,14.4,75,40,16,30.24,30.15,12,3,12,0.00
2012-11-11,69.4,62.9,57.6,22.8,16.6,13.1,18,16,15,30.30,30.12,17,5,17,0.00
2012-11-12,68.0,55.3,36.3,53.9,28.0,14.4,98,48,15,30.27,29.97,24,6,24,0.58
2012-11-13,36.3,34.1,32.9,24.0,14.8,6.2,61,46,31,30.53,30.27,15,2,15,0.00
2012-11-14,38.8,34.2,27.3,27.9,12.3,2.4,91,43,24,30.59,30.41,6,0,6,0.00
2012-11-15,48.9,35.7,27.7,28.8,12.4,4.5,97,43,19,30.41,30.30,8,2,8,0.00
2012-11-16,50.7,34.6,25.0,44.4,28.0,24.0,98,81,38,30.50,30.30,8,0,8,0.00
2012-11-17,55.8,37.1,27.0,45.7,28.6,12.7,98,80,20,30.62,30.47,6,0,6,0.00
2012-11-18,59.5,42.7,31.1,37.4,22.8,9.7,98,54,17,30.56,30.41,12,2,12,0.00
2012-11-19,56.5,42.2,36.0,37.0,19.4,9.7,95,46,17,30.41,30.21,9,2,9,0.00
2012-11-20,58.1,41.4,32.4,35.1,25.9,11.2,98,61,17,30.21,30.12,6,0,6,0.00
2012-11-21,56.8,38.4,27.5,50.1,32.0,20.6,98,83,27,30.27,30.12,6,0,6,0.00
2012-11-22,64.0,49.6,35.4,36.7,17.5,8.1,98,35,16,30.21,29.97,14,3,14,0.00
2012-11-23,54.5,45.0,32.7,48.8,22.9,2.8,98,49,18,29.97,29.79,21,6,21,0.00
2012-11-24,35.2,33.7,32.9,5.5,1.4,-1.0,30,25,23,30.03,29.88,18,4,18,0.00
2012-11-25,37.4,32.4,27.5,25.9,7.6,-1.0,90,37,23,30.00,29.85,15,4,15,0.00
2012-11-26,37.8,35.7,33.1,8.5,3.3,0.1,30,25,21,30.24,29.94,12,2,12,0.00
2012-11-27,36.7,33.3,28.8,10.6,3.9,-1.2,40,29,22,30.33,30.21,6,0,6,0.00
2012-11-28,36.0,32.5,26.4,9.0,4.0,-1.4,38,30,24,30.30,30.21,15,4,15,0.00
2012-11-29,49.3,37.4,28.8,11.0,4.8,-0.9,44,26,19,30.36,30.24,12,3,12,0.00
2012-11-30,47.3,38.3,33.4,35.1,11.0,-1.0,96,39,19,30.30,30.18,9,1,9,0.00
2012-12-1,55.6,45.8,31.5,35.9,23.8,14.1,97,52,20,30.33,30.15,15,3,15,0.00
2012-12-2,55.8,53.0,49.8,54.7,43.5,15.3,98,79,22,30.15,30.00,17,5,17,0.70
2012-12-3,61.5,55.0,47.3,58.9,52.9,46.8,98,93,77,30.24,30.12,17,3,17,0.00
2012-12-4,62.8,55.8,42.8,55.8,49.0,42.3,98,79,56,30.12,29.97,20,5,20,0.38
2012-12-5,43.5,36.3,31.3,43.0,17.2,0.2,98,51,25,30.39,30.09,12,2,12,0.00
2012-12-6,48.4,35.3,23.7,16.8,5.2,0.2,71,30,19,30.36,30.03,9,1,9,0.00
2012-12-7,46.4,43.0,38.7,43.7,31.7,2.1,98,72,21,30.03,29.91,11,2,11,0.04
2012-12-8,49.6,43.5,35.6,49.1,42.9,35.1,98,98,98,30.15,29.82,10,1,10,0.21
2012-12-9,52.9,40.7,33.8,52.2,32.1,13.4,98,75,28,30.21,29.71,13,3,13,0.16
2012-12-10,55.9,44.0,35.1,55.4,42.9,27.3,98,96,73,29.82,29.59,12,2,12,0.29
2012-12-11,40.5,34.1,29.5,30.1,18.3,3.4,86,55,23,30.18,29.82,10,2,10,0.00
2012-12-12,44.2,31.9,24.8,26.7,7.9,1.0,98,41,20,30.41,30.18,11,3,11,0.00
2012-12-13,47.7,34.4,23.7,21.8,9.9,-1.4,87,43,19,30.41,30.21,12,2,12,0.00
2012-12-14,46.8,36.5,27.3,29.4,11.4,-0.6,98,43,20,30.27,30.18,12,3,12,0.00
2012-12-15,49.8,39.6,27.7,31.7,15.0,4.5,98,47,19,30.21,29.85,13,3,13,0.00
2012-12-16,60.1,52.2,45.5,50.7,23.3,6.4,97,38,19,29.85,29.71,20,5,20,0.00
2012-12-17,51.1,44.6,41.2,50.3,39.2,30.9,98,82,58,29.82,29.59,10,1,10,0.38
2012-12-18,42.8,38.6,34.0,42.3,34.7,22.3,98,87,55,29.82,29.53,12,2,12,0.62
2012-12-19,41.2,36.4,30.9,40.7,35.0,30.2,98,95,77,30.18,29.79,5,0,5,0.00
2012-12-20,44.6,39.9,33.1,40.8,26.9,10.6,98,66,28,30.15,29.35,22,6,22,0.20
2012-12-21,41.2,34.1,30.9,35.6,29.3,19.5,98,84,53,29.65,29.29,24,5,24,0.17
2012-12-22,33.3,31.6,29.7,31.1,10.5,3.1,98,44,30,30.06,29.65,21,5,24,0.00
2012-12-23,35.6,29.8,21.6,13.6,4.6,-1.8,50,34,25,30.03,29.91,12,3,12,0.00
2012-12-24,41.0,31.9,25.9,31.3,8.5,0.2,98,42,21,30.03,29.82,8,0,8,0.04
2012-12-25,34.9,32.6,31.1,32.4,20.0,-0.6,98,65,25,30.27,29.88,9,0,9,0.00
2012-12-26,31.1,27.7,25.0,27.5,11.5,-2.6,98,58,25,30.27,29.71,17,3,17,0.00
2012-12-27,31.1,28.7,26.2,28.3,22.5,15.5,98,79,58,30.12,29.68,13,3,13,0.00
2012-12-28,32.7,29.1,20.3,21.3,11.4,3.3,91,50,30,30.15,29.97,8,1,8,0.00
2012-12-29,33.8,28.2,23.5,29.2,23.9,11.1,98,85,55,29.97,29.71,13,1,13,0.00
2012-12-30,33.3,28.2,22.6,28.8,10.9,-0.9,98,51,28,30.30,29.91,13,4,13,0.00
2012-12-31,35.8,28.7,20.8,32.0,7.3,-2.6,98,45,22,30.24,29.97,17,5,17,0.00
2013-1-1,32.9,27.3,22.5,32.2,4.6,-7.2,98,40,23,30.09,29.94,10,2,10,0.00